Location: Aalsum
(53.3404°N, 6.0062°E)
Time: 02:14:38
(UTC+00:00)

Cosmos 2369 Rocket - Pass Details

Date: 28 January 2023
Orbit: 829 x 851 km, 71.0° (Epoch: 20 March)

Event Time Altitude Azimuth Distance (km) Brightness Sun altitude
Rises 18:12:44 0° 298° (WNW) 3,385 6.3 -18.0°
Reaches altitude 10° 18:16:41 10° 325° (NW) 2,449 5.0 -18.5°
Maximum altitude 18:19:16 13° 353° (N) 2,231 4.4 -18.9°
Drops below altitude 10° 18:21:51 10° 20° (NNE) 2,448 4.4 -19.3°
Enters shadow 18:22:12 - 23° (NNE) 2,507 4.4 -19.4°
